CSN3989 ZGGG-ZSJX

Flight info

Callsign CSN3989
Flight time N/A
Altitude 29100
Route BOVMA W41 DOPKU G471 PLT A599 KAKIS
Aircraft A320/M-SDE3FGHIRWY/LB1

Departure

Time 2026-05-06 12:38
Airport Guangzhou Baiyun International Airport (ZGGG)

Arrival

Time N/A
Airport Jiaxing Nanhu Airport (ZSJX)
Time Latitude Longitude Altitude Speed Heading
2026-05-06 12:02 23.39872 113.29593 59 ft 0 kts 14°
2026-05-06 12:25 23.39861 113.29590 53 ft 4 kts 14°
2026-05-06 12:25 23.39840 113.29585 51 ft 4 kts 359°
2026-05-06 12:26 23.39817 113.29593 51 ft 4 kts 301°
2026-05-06 12:26 23.39812 113.29606 54 ft 0 kts 284°
2026-05-06 12:30 23.39812 113.29604 54 ft 2 kts 284°
2026-05-06 12:30 23.39827 113.29538 55 ft 12 kts 284°
2026-05-06 12:30 23.39849 113.29442 58 ft 10 kts 284°
2026-05-06 12:30 23.39865 113.29371 58 ft 8 kts 284°
2026-05-06 12:31 23.39850 113.29311 54 ft 10 kts 221°
2026-05-06 12:31 23.39837 113.29235 58 ft 12 kts 285°
2026-05-06 12:31 23.39844 113.29140 58 ft 12 kts 242°
2026-05-06 12:31 23.39762 113.29105 53 ft 17 kts 192°
2026-05-06 12:32 23.39621 113.29067 52 ft 23 kts 194°
2026-05-06 12:32 23.39459 113.29023 54 ft 22 kts 194°
2026-05-06 12:32 23.39310 113.28982 55 ft 20 kts 194°
2026-05-06 12:32 23.39169 113.28944 56 ft 22 kts 194°
2026-05-06 12:33 23.39030 113.28906 55 ft 21 kts 194°
2026-05-06 12:33 23.38888 113.28868 54 ft 22 kts 194°
2026-05-06 12:33 23.38736 113.28827 52 ft 20 kts 193°
2026-05-06 12:33 23.38604 113.28791 58 ft 21 kts 194°
2026-05-06 12:34 23.38455 113.28752 52 ft 23 kts 194°
2026-05-06 12:34 23.38313 113.28713 56 ft 19 kts 194°
2026-05-06 12:34 23.38175 113.28676 54 ft 22 kts 193°
2026-05-06 12:34 23.38037 113.28639 54 ft 20 kts 194°
2026-05-06 12:35 23.37895 113.28600 51 ft 21 kts 194°
2026-05-06 12:35 23.37745 113.28560 54 ft 23 kts 194°
2026-05-06 12:35 23.37675 113.28525 54 ft 5 kts 249°
2026-05-06 12:35 23.37677 113.28489 57 ft 4 kts 279°
2026-05-06 12:36 23.37680 113.28474 58 ft 1 kts 281°
2026-05-06 12:36 23.37682 113.28466 58 ft 3 kts 281°
2026-05-06 12:36 23.37687 113.28440 54 ft 4 kts 284°
2026-05-06 12:36 23.37701 113.28379 55 ft 11 kts 286°
2026-05-06 12:37 23.37770 113.28372 52 ft 13 kts 11°
2026-05-06 12:37 23.37988 113.28428 53 ft 68 kts 13°
2026-05-06 12:37 23.38673 113.28616 56 ft 132 kts 14°
2026-05-06 12:37 23.39732 113.28901 108 ft 175 kts 14°
2026-05-06 12:38 23.40884 113.29209 792 ft 168 kts 15°
2026-05-06 12:38 23.42022 113.29519 1428 ft 168 kts 15°
2026-05-06 12:38 23.43158 113.29817 2031 ft 167 kts 14°
2026-05-06 12:38 23.44312 113.29911 2575 ft 168 kts 353°
2026-05-06 12:39 23.45446 113.29612 3073 ft 169 kts 336°
2026-05-06 12:39 23.46559 113.29130 3386 ft 181 kts 337°
2026-05-06 12:39 23.47807 113.28600 3562 ft 204 kts 337°
2026-05-06 12:39 23.49184 113.28007 3891 ft 221 kts 336°
2026-05-06 12:40 23.50682 113.27354 4209 ft 244 kts 336°
2026-05-06 12:40 23.52316 113.26680 4767 ft 257 kts 344°
2026-05-06 12:40 23.54139 113.26556 5371 ft 274 kts
2026-05-06 12:40 23.56063 113.26898 6001 ft 285 kts
2026-05-06 12:41 23.58011 113.27348 6773 ft 290 kts 17°
2026-05-06 12:41 23.59793 113.28385 7535 ft 296 kts 37°
2026-05-06 12:41 23.61202 113.30061 8276 ft 302 kts 57°
2026-05-06 12:41 23.62019 113.32173 9021 ft 307 kts 76°
2026-05-06 12:42 23.62495 113.34457 9752 ft 311 kts 77°
2026-05-06 12:42 23.62980 113.36786 10304 ft 321 kts 77°
2026-05-06 12:42 23.63496 113.39248 10476 ft 344 kts 76°
2026-05-06 12:42 23.64047 113.41870 10633 ft 366 kts 76°
2026-05-06 12:43 23.64599 113.44476 11082 ft 374 kts 76°
2026-05-06 12:43 23.65196 113.47289 11687 ft 379 kts 76°
2026-05-06 12:43 23.65788 113.50080 12300 ft 383 kts 76°
2026-05-06 12:43 23.66398 113.52966 12925 ft 388 kts 76°
2026-05-06 12:44 23.66997 113.55803 13534 ft 391 kts 76°
2026-05-06 12:44 23.67612 113.58711 14060 ft 396 kts 76°
2026-05-06 12:44 23.68234 113.61657 14579 ft 399 kts 77°
2026-05-06 12:44 23.68854 113.64614 15125 ft 403 kts 77°
2026-05-06 12:45 23.69481 113.67610 15645 ft 406 kts 77°
2026-05-06 12:45 23.70047 113.70290 16116 ft 409 kts 77°
2026-05-06 12:45 23.71333 113.76387 17171 ft 415 kts 77°
2026-05-06 12:46 23.71976 113.79473 17678 ft 419 kts 77°
2026-05-06 12:46 23.72619 113.82584 18165 ft 422 kts 77°
2026-05-06 12:46 23.73264 113.85715 18626 ft 425 kts 77°
2026-05-06 12:46 23.73919 113.88878 19100 ft 428 kts 77°
2026-05-06 12:47 23.74581 113.92051 19568 ft 431 kts 77°
2026-05-06 12:47 23.75251 113.95251 20035 ft 434 kts 77°
2026-05-06 12:47 23.75929 113.98480 20509 ft 437 kts 77°
2026-05-06 12:47 23.76603 114.01714 20971 ft 439 kts 77°
2026-05-06 12:48 23.77284 114.04982 21424 ft 442 kts 77°
2026-05-06 12:48 23.77966 114.08265 21857 ft 446 kts 77°
2026-05-06 12:48 23.78653 114.11579 22289 ft 449 kts 77°
2026-05-06 12:48 23.79342 114.14919 22700 ft 452 kts 77°
2026-05-06 12:49 23.80033 114.18274 23109 ft 455 kts 77°
2026-05-06 12:49 23.80737 114.21654 23512 ft 458 kts 75°
2026-05-06 12:49 23.81772 114.24950 23822 ft 460 kts 65°
2026-05-06 12:49 23.83312 114.28001 24163 ft 460 kts 54°
2026-05-06 12:50 23.85316 114.30724 24490 ft 460 kts 44°
2026-05-06 12:50 23.87708 114.33035 24828 ft 459 kts 35°
2026-05-06 12:50 23.90244 114.35170 25178 ft 460 kts 35°
2026-05-06 12:50 23.92783 114.37311 25512 ft 461 kts 35°
2026-05-06 12:51 23.95324 114.39462 25840 ft 463 kts 35°
2026-05-06 12:51 23.97867 114.41618 26166 ft 465 kts 35°
2026-05-06 12:51 24.00425 114.43788 26487 ft 466 kts 35°
2026-05-06 12:51 24.02992 114.45968 26817 ft 468 kts 35°
2026-05-06 12:52 24.05569 114.48160 27120 ft 469 kts 35°
2026-05-06 12:52 24.08149 114.50354 27431 ft 471 kts 35°
2026-05-06 12:52 24.10708 114.52528 27715 ft 473 kts 35°
2026-05-06 12:52 24.13317 114.54744 28031 ft 474 kts 35°
2026-05-06 12:53 24.15931 114.56964 28329 ft 475 kts 35°
2026-05-06 12:53 24.18545 114.59184 28611 ft 477 kts 35°
2026-05-06 12:53 24.21172 114.61417 28877 ft 478 kts 35°
2026-05-06 12:53 24.23799 114.63651 29043 ft 478 kts 35°
2026-05-06 12:54 24.26416 114.65880 29079 ft 471 kts 35°
2026-05-06 12:54 24.31556 114.70263 29080 ft 468 kts 35°
2026-05-06 12:55 24.36692 114.74649 29076 ft 468 kts 35°
2026-05-06 12:55 24.41830 114.79043 29070 ft 468 kts 35°
2026-05-06 12:56 24.46934 114.83409 29072 ft 468 kts 35°
2026-05-06 12:56 24.52072 114.87808 29069 ft 468 kts 35°
2026-05-06 12:57 24.57478 114.91701 29052 ft 463 kts 21°
2026-05-06 12:57 24.63586 114.93717 29057 ft 457 kts
2026-05-06 12:58 24.69794 114.95244 29054 ft 458 kts
2026-05-06 12:58 24.76014 114.96794 29054 ft 458 kts
2026-05-06 12:59 24.82234 114.98331 29056 ft 458 kts
2026-05-06 12:59 24.88466 114.99843 29058 ft 458 kts
2026-05-06 13:00 24.94695 115.01352 29050 ft 458 kts
2026-05-06 13:00 25.00889 115.02867 29056 ft 458 kts
2026-05-06 13:01 25.07112 115.04383 29054 ft 458 kts
2026-05-06 13:01 25.13339 115.05896 29053 ft 458 kts
2026-05-06 13:02 25.19567 115.07419 29053 ft 458 kts
2026-05-06 13:02 25.25796 115.08951 29052 ft 458 kts
2026-05-06 13:03 25.32050 115.10148 29052 ft 453 kts 358°
2026-05-06 13:03 25.38195 115.09251 29050 ft 443 kts 339°
2026-05-06 13:04 25.43822 115.06564 29045 ft 440 kts 332°
2026-05-06 13:04 25.49373 115.03725 29043 ft 440 kts 332°
2026-05-06 13:05 25.54932 115.00870 29039 ft 440 kts 332°
2026-05-06 13:05 25.60455 114.98021 29034 ft 440 kts 332°
2026-05-06 13:06 25.66013 114.95155 29035 ft 440 kts 332°
2026-05-06 13:06 25.71565 114.92291 29036 ft 440 kts 332°
2026-05-06 13:07 25.77513 114.90446 29033 ft 451 kts 355°
2026-05-06 13:07 25.80599 114.90763 29030 ft 457 kts
2026-05-06 13:07 25.83617 114.91976 29027 ft 464 kts 25°
2026-05-06 13:07 25.86273 114.94035 29022 ft 471 kts 40°
2026-05-06 13:08 25.88547 114.96662 29018 ft 473 kts 44°
2026-05-06 13:08 25.93025 115.02021 29022 ft 474 kts 44°
2026-05-06 13:09 25.97523 115.07390 29018 ft 474 kts 44°
2026-05-06 13:09 26.02034 115.12758 29018 ft 475 kts 44°
2026-05-06 13:10 26.06537 115.18144 29024 ft 475 kts 44°
2026-05-06 13:10 26.11032 115.23549 29027 ft 476 kts 44°
2026-05-06 13:11 26.15528 115.28953 29028 ft 476 kts 44°
2026-05-06 13:11 26.20033 115.34356 29032 ft 476 kts 44°
2026-05-06 13:12 26.24542 115.39773 29033 ft 477 kts 44°
2026-05-06 13:12 26.29047 115.45194 29034 ft 477 kts 44°
2026-05-06 13:13 26.33561 115.50612 29040 ft 477 kts 44°
2026-05-06 13:13 26.38082 115.56026 29046 ft 477 kts 44°
2026-05-06 13:14 26.42603 115.61442 29040 ft 477 kts 44°
2026-05-06 13:14 26.47123 115.66879 29043 ft 478 kts 44°
2026-05-06 13:15 26.51600 115.72292 29047 ft 478 kts 44°
2026-05-06 13:15 26.56120 115.77749 29049 ft 478 kts 44°
2026-05-06 13:16 26.60642 115.83201 29048 ft 478 kts 44°
2026-05-06 13:16 26.64394 115.87736 29052 ft 478 kts 44°
2026-05-06 13:17 26.69664 115.94122 29060 ft 478 kts 44°
2026-05-06 13:17 26.73418 115.98675 29060 ft 478 kts 44°
2026-05-06 13:18 26.78691 116.05010 29059 ft 478 kts 44°
2026-05-06 13:18 26.82502 116.09562 29060 ft 478 kts 44°
2026-05-06 13:19 26.87055 116.15016 29066 ft 479 kts 44°
2026-05-06 13:19 26.91583 116.20474 29061 ft 479 kts 44°
2026-05-06 13:20 26.96116 116.25948 29060 ft 479 kts 44°
2026-05-06 13:20 27.00662 116.31427 29059 ft 479 kts 44°
2026-05-06 13:21 27.05172 116.36864 29055 ft 480 kts 44°
2026-05-06 13:21 27.09714 116.42354 29058 ft 480 kts 44°
2026-05-06 13:22 27.14251 116.47847 29052 ft 480 kts 44°
2026-05-06 13:22 27.18792 116.53350 29055 ft 480 kts 44°
2026-05-06 13:23 27.23348 116.58848 29052 ft 480 kts 43°
2026-05-06 13:23 27.27986 116.64236 29054 ft 480 kts 42°
2026-05-06 13:24 27.32656 116.69592 29058 ft 480 kts 43°
2026-05-06 13:24 27.37303 116.74986 29054 ft 480 kts 43°
2026-05-06 13:25 27.41930 116.80405 29052 ft 480 kts 43°
2026-05-06 13:25 27.46561 116.85825 29055 ft 480 kts 43°
2026-05-06 13:26 27.51188 116.91245 29059 ft 480 kts 43°
2026-05-06 13:26 27.55835 116.96663 29059 ft 480 kts 43°
2026-05-06 13:27 27.60499 117.02042 29061 ft 480 kts 42°
2026-05-06 13:27 27.65168 117.07432 29063 ft 480 kts 43°
2026-05-06 13:28 27.69833 117.12833 29063 ft 480 kts 43°
2026-05-06 13:28 27.74496 117.18239 29067 ft 480 kts 43°
2026-05-06 13:29 27.79148 117.23656 29064 ft 481 kts 43°
2026-05-06 13:29 27.83777 117.29051 29067 ft 481 kts 43°
2026-05-06 13:30 27.88433 117.34486 29069 ft 481 kts 43°
2026-05-06 13:30 27.93089 117.39915 29056 ft 481 kts 43°
2026-05-06 13:31 27.97752 117.45349 29068 ft 482 kts 43°
2026-05-06 13:31 28.02416 117.50805 29065 ft 482 kts 43°
2026-05-06 13:32 28.07082 117.56272 29057 ft 482 kts 43°
2026-05-06 13:32 28.11749 117.61736 29059 ft 483 kts 43°
2026-05-06 13:33 28.16405 117.67202 29060 ft 483 kts 43°
2026-05-06 13:33 28.21066 117.72694 29054 ft 483 kts 43°
2026-05-06 13:34 28.25723 117.78174 29055 ft 483 kts 43°
2026-05-06 13:34 28.30386 117.83662 29050 ft 483 kts 43°
2026-05-06 13:35 28.35038 117.89150 29048 ft 483 kts 43°
2026-05-06 13:35 28.39696 117.94656 29045 ft 483 kts 43°
2026-05-06 13:36 28.44301 118.00146 29044 ft 483 kts 44°
2026-05-06 13:36 28.48864 118.05765 29044 ft 484 kts 45°
2026-05-06 13:37 28.53406 118.11416 29047 ft 484 kts 44°
2026-05-06 13:37 28.57962 118.17057 29039 ft 484 kts 44°
2026-05-06 13:38 28.62527 118.22687 29046 ft 484 kts 44°
2026-05-06 13:38 28.67093 118.28314 29055 ft 484 kts 44°
2026-05-06 13:39 28.71656 118.33958 29047 ft 484 kts 44°
2026-05-06 13:39 28.76214 118.39606 29043 ft 484 kts 44°
2026-05-06 13:40 28.80774 118.45264 29044 ft 484 kts 44°
2026-05-06 13:40 28.85326 118.50914 29054 ft 484 kts 44°
2026-05-06 13:41 28.89870 118.56578 29048 ft 484 kts 45°
2026-05-06 13:41 28.94423 118.62249 29054 ft 484 kts 45°
2026-05-06 13:42 28.98964 118.67917 29054 ft 484 kts 45°
2026-05-06 13:42 29.03511 118.73597 29052 ft 484 kts 45°
2026-05-06 13:43 29.08056 118.79276 29058 ft 484 kts 45°
2026-05-06 13:43 29.12563 118.84932 29051 ft 484 kts 45°
2026-05-06 13:44 29.17096 118.90629 29053 ft 484 kts 45°
2026-05-06 13:44 29.21628 118.96324 29050 ft 484 kts 45°
2026-05-06 13:45 29.26163 119.02028 29046 ft 484 kts 45°
2026-05-06 13:45 29.30699 119.07735 28909 ft 483 kts 45°
2026-05-06 13:45 29.32953 119.10581 28191 ft 482 kts 45°
2026-05-06 13:46 29.35191 119.13415 27603 ft 478 kts 45°
2026-05-06 13:46 29.37422 119.16239 27051 ft 474 kts 45°
2026-05-06 13:46 29.39619 119.19024 26525 ft 470 kts 46°
2026-05-06 13:46 29.41797 119.21793 26026 ft 467 kts 46°
2026-05-06 13:47 29.42536 119.22733 25852 ft 466 kts 46°